This demonstration page uses our WeatherBlox Daily Observations layout. Learn more.

Left ArrowRight Arrow

38.83388, -104.82136

Hourly Observations for April 10, 2016

Temp ( °F °C ) Dew Point ( °F °C ) Humidity (%) Winds ( mph kmh ) Pressure ( in mb ) Visibility ( mi km ) Precip ( " mm )
12:58 am 00:58 Clear 54 12 20 -6.9 26 26 W 14 22 29.33 993 10 16 N/A
1:58 am 01:58 Clear 51 10.3 21 -6.2 31 31 WSW 5 7 29.33 993 10 16 N/A
2:58 am 02:58 Clear 52 11 21 -6.2 30 30 NNE 5 7 29.32 993 10 16 N/A
3:58 am 03:58 Cloudy 52 11.1 21 -6.3 29 29 S 8 13 29.33 993 10 16 N/A
4:58 am 04:58 Mostly Cloudy 52 11.2 22 -5.6 31 31 NW 6 9 29.35 994 10 16 N/A
5:58 am 05:58 Cloudy 54 12 20 -6.6 27 27 NNW 7 11 29.39 995 10 16 N/A
6:52 am 06:52 Cloudy 54 12 21 -6 28 28 NNE 12 19 29.56 1001 10 16 N/A
6:58 am 06:58 Cloudy 53 11.5 22 -5.8 30 30 NNE 10 17 29.39 995 10 16 N/A
7:58 am 07:58 Cloudy 52 10.9 23 -5.2 32 32 NW 7 11 29.41 996 10 16 N/A
8:55 am 08:55 Mostly Cloudy 54 12 19 -7 26 26 NNW 13 20 29.59 1002 10 16 N/A
9:58 am 09:58 Mostly Cloudy 53 11.5 25 -4 34 34 NE 3 6 29.45 997 10 16 N/A
10:58 am 10:58 Partly Cloudy 54 12.3 25 -4 32 32 NNE 5 7 29.46 998 10 16 N/A
11:58 am 11:58 Partly Cloudy 58 14.5 23 -4.8 26 26 ENE 5 7 29.41 996 10 16 N/A
12:58 pm 12:58 Mostly Cloudy 58 14.5 23 -5.1 26 26 E 5 7 29.39 995 10 16 N/A
1:58 pm 13:58 Mostly Cloudy 58 14.6 24 -4.7 26 26 NE 3 6 29.39 995 10 16 N/A
2:58 pm 14:58 Mostly Cloudy 56 13.1 25 -3.9 31 31 NW 12 19 29.40 996 10 16 N/A
3:03 pm 15:03 Mostly Cloudy with Light Showers 55 13 27 -3 33 33 NNW 8 13 29.53 1000 10 16 N/A
3:38 pm 15:38 Mostly Cloudy 55 13 25 -4 31 31 SE 3 6 29.53 1000 10 16 N/A
3:58 pm 15:58 Mostly Cloudy 56 13.3 26 -3.6 31 31 NNW 7 11 29.39 995 10 16 N/A
4:58 pm 16:58 Mostly Cloudy 54 12.4 28 -2.1 37 37 WNW 14 22 29.39 995 10 16 N/A
5:58 pm 17:58 Mostly Cloudy 56 13.4 25 -3.8 30 30 S 5 7 29.40 996 10 16 N/A
6:58 pm 18:58 Mostly Cloudy 52 10.9 30 -0.9 44 44 NNW 7 11 29.44 997 10 16 N/A
7:22 pm 19:22 Cloudy with Light Showers 52 11 30 -1 44 44 S 5 7 29.65 1004 10 16 N/A
7:51 pm 19:51 Mostly Cloudy 50 10 30 -1 47 47 W 9 15 29.68 1005 10 16 N/A
7:58 pm 19:58 Mostly Cloudy 51 10.6 31 -0.8 45 45 W 6 9 29.46 998 10 16 N/A
8:31 pm 20:31 Cloudy with Thunderstorms 52 11 28 -2 41 41 S 7 11 29.65 1004 10 16 N/A
8:46 pm 20:46 Cloudy 50 10 32 0 50 50 SSW 5 7 29.71 1006 10 16 N/A
8:58 pm 20:58 Mostly Cloudy 49 9.4 33 0.4 54 54 W 2 4 29.51 999 10 16 N/A
9:17 pm 21:17 Mostly Cloudy 46 8 37 3 71 71 NW 20 31 29.77 1008 10 16 N/A
9:24 pm 21:24 Mostly Cloudy with Light Showers 46 8 37 3 71 71 NNW 17 28 29.77 1008 10 16 N/A
9:54 pm 21:54 Mostly Cloudy with Light Showers 43 6 37 3 81 81 NNW 17 28 29.85 1011 10 16 N/A
9:58 pm 21:58 Mostly Cloudy with Light Showers 42 5.6 38 3.3 85 85 N 13 20 29.59 1002 10 16 N/A
10:38 pm 22:38 Cloudy with Light Showers 41 5 37 3 87 87 N 14 22 29.88 1012 10 16 N/A
10:53 pm 22:53 Cloudy with Light Showers 39 4 37 3 93 93 NNE 10 17 29.91 1013 10 16 N/A
10:58 pm 22:58 Cloudy with Light Showers 39 3.8 37 3 95 95 N 12 19 29.62 1003 9 14 0.02 0.51
11:58 pm 23:58 Cloudy with Light Rain/Snow 37 2.5 35 1.7 95 95 NNW 15 24 29.61 1003 3 4 0.06 1.52

Powered by AerisWeather